User: anonymous   Login
Location: Unspecified
(0.0000°N, 0.0000°E)
Time: 01:57:48
(UTC+00:00)
Language:

PRISM - Orbit

View from above orbital plane
View from above orbital plane
View from above satellite
View from above satellite

Ground track
Ground track

The orbit data is extracted from the following two-line orbital elements,

1 33493U 09002B   17147.89255842 +.00001171 +00000-0 +11088-3 0  9997
2 33493 098.1721 029.4698 0016078 144.9192 215.3094 14.95643752452744
Epoch (UTC): 27 May 2017 21:25:17
Eccentricity: 0.0016078
inclination: 98.1721°
perigee height: 569 km
apogee height: 591 km
right ascension of ascending node: 29.4698°
argument of perigee: 144.9192°
revolutions per day: 14.95643752
mean anomaly at epoch: 215.3094°
orbit number at epoch: 45274

The dashed part of the orbit path shows where the satellite is in the earth's shadow,  

DLR